• In Uzbekistan
  • List of Countries
  • For 7 days
  • Water Temperature
  • Satellite Maps
  • Weather Map
  • Weather Widgets
  • user-avatar
    Login

    Hourly Weather Dawson

    Today, 18 July, Wednesday

    Time Temperature Precipitation Wind Pressure Humidity
    00:00 +6°C° 0 mm 1 mps 692 mmHg 85%
    01:00 +6°C° 0 mm 1 mps 692 mmHg 86%
    02:00 +5°C° 0 mm 1 mps 692 mmHg 87%
    03:00 +5°C° 0 mm 1 mps 692 mmHg 89%
    04:00 +6°C° 0 mm 1 mps 693 mmHg 82%
    05:00 +8°C° 0 mm 1 mps 693 mmHg 75%
    06:00 +9°C° 0 mm 1 mps 693 mmHg 68%
    07:00 +11°C° 0 mm 1 mps 693 mmHg 59%
    08:00 +13°C° 0 mm 1 mps 694 mmHg 51%
    09:00 +14°C° 0 mm 1 mps 694 mmHg 42%
    10:00 +15°C° 0 mm 2 mps 694 mmHg 38%
    11:00 +16°C° 0 mm 2 mps 694 mmHg 33%
    12:00 +17°C° 0 mm 2 mps 693 mmHg 29%
    13:00 +18°C° 0 mm 2 mps 693 mmHg 27%
    14:00 +19°C° 0 mm 2 mps 693 mmHg 25%
    15:00 +19°C° 0 mm 3 mps 693 mmHg 24%
    16:00 +19°C° 0 mm 3 mps 693 mmHg 24%
    17:00 +19°C° 0 mm 3 mps 693 mmHg 25%
    18:00 +19°C° 0 mm 2 mps 693 mmHg 25%
    19:00 +17°C° 0 mm 2 mps 692 mmHg 32%
    20:00 +15°C° 0 mm 1 mps 692 mmHg 38%
    21:00 +13°C° 0 mm 1 mps 692 mmHg 45%
    22:00 +12°C° 0 mm 1 mps 692 mmHg 48%
    23:00 +10°C° 0 mm 1 mps 692 mmHg 51%

    Tomorrow, 19 July, Thursday

    Time Temperature Precipitation Wind Pressure Humidity
    00:00 +9°C° 0 mm 1 mps 692 mmHg 54%
    01:00 +8°C° 0 mm 0 mps 693 mmHg 56%
    02:00 +8°C° 0 mm 0 mps 693 mmHg 58%
    03:00 +7°C° 0 mm 0 mps 693 mmHg 60%
    04:00 +9°C° 0 mm 0 mps 693 mmHg 58%
    05:00 +11°C° 0 mm 1 mps 694 mmHg 56%
    06:00 +13°C° 0 mm 1 mps 694 mmHg 54%
    07:00 +14°C° 0 mm 1 mps 694 mmHg 52%
    08:00 +15°C° 0 mm 2 mps 694 mmHg 51%
    09:00 +16°C° 0 mm 2 mps 695 mmHg 50%
    10:00 +17°C° 0 mm 2 mps 695 mmHg 48%
    11:00 +18°C° 0 mm 2 mps 695 mmHg 47%
    12:00 +18°C° 0 mm 2 mps 695 mmHg 45%
    13:00 +19°C° 0 mm 3 mps 694 mmHg 43%
    14:00 +20°C° 0 mm 3 mps 694 mmHg 41%
    15:00 +20°C° 0 mm 3 mps 694 mmHg 38%
    16:00 +20°C° 0 mm 3 mps 694 mmHg 40%
    17:00 +20°C° 0 mm 3 mps 694 mmHg 41%
    18:00 +20°C° 0 mm 3 mps 694 mmHg 42%
    19:00 +18°C° 0 mm 2 mps 694 mmHg 50%
    20:00 +16°C° 0 mm 2 mps 694 mmHg 57%
    21:00 +15°C° 0 mm 1 mps 694 mmHg 64%
    22:00 +14°C° 0 mm 1 mps 694 mmHg 69%
    23:00 +13°C° 0 mm 1 mps 694 mmHg 73%

    Day after tomorrow, 20 July, Friday

    Time Temperature Precipitation Wind Pressure Humidity
    00:00 +12°C° 0 mm 1 mps 694 mmHg 78%
    01:00 +11°C° 0 mm 0 mps 694 mmHg 79%
    02:00 +11°C° 0 mm 0 mps 694 mmHg 81%
    03:00 +10°C° 0 mm 0 mps 694 mmHg 83%
    04:00 +11°C° 0 mm 0 mps 695 mmHg 80%
    05:00 +13°C° 0 mm 1 mps 695 mmHg 78%
    06:00 +13°C° 0 mm 1 mps 695 mmHg 76%
    07:00 +14°C° 0 mm 1 mps 695 mmHg 71%
    08:00 +15°C° 0 mm 1 mps 695 mmHg 66%
    09:00 +16°C° 0 mm 2 mps 695 mmHg 62%
    10:00 +17°C° 0.2 mm 2 mps 695 mmHg 58%
    11:00 +18°C° 0.2 mm 2 mps 695 mmHg 55%
    12:00 +19°C° 0.2 mm 3 mps 695 mmHg 52%
    13:00 +20°C° 0.2 mm 3 mps 695 mmHg 50%
    14:00 +20°C° 0.2 mm 3 mps 695 mmHg 47%
    15:00 +21°C° 0.2 mm 3 mps 695 mmHg 44%
    16:00 +20°C° 0 mm 3 mps 695 mmHg 45%
    17:00 +20°C° 0 mm 3 mps 695 mmHg 45%
    18:00 +20°C° 0 mm 3 mps 695 mmHg 45%
    19:00 +18°C° 0 mm 2 mps 695 mmHg 51%
    20:00 +17°C° 0 mm 2 mps 695 mmHg 57%
    21:00 +15°C° 0 mm 1 mps 695 mmHg 63%
    22:00 +14°C° 0 mm 1 mps 695 mmHg 68%
    23:00 +12°C° 0 mm 1 mps 695 mmHg 73%

    21 July, Saturday

    Time Temperature Precipitation Wind Pressure Humidity
    00:00 +10°C° 0 mm 0 mps 695 mmHg 77%
    01:00 +10°C° 0 mm 0 mps 695 mmHg 79%
    02:00 +9°C° 0 mm 0 mps 695 mmHg 81%
    03:00 +9°C° 0 mm 0 mps 695 mmHg 82%
    04:00 +10°C° 0 mm 0 mps 696 mmHg 76%
    05:00 +12°C° 0 mm 0 mps 696 mmHg 71%
    06:00 +13°C° 0 mm 0 mps 697 mmHg 65%
    07:00 +16°C° 0 mm 1 mps 697 mmHg 59%
    08:00 +17°C° 0 mm 2 mps 697 mmHg 53%
    09:00 +19°C° 0 mm 2 mps 697 mmHg 47%
    10:00 +20°C° 0 mm 3 mps 698 mmHg 44%
    11:00 +21°C° 0 mm 3 mps 698 mmHg 42%
    12:00 +21°C° 0 mm 3 mps 698 mmHg 39%
    13:00 +22°C° 0 mm 3 mps 698 mmHg 38%
    14:00 +22°C° 0 mm 3 mps 698 mmHg 37%
    15:00 +24°C° 0 mm 3 mps 698 mmHg 36%
    16:00 +23°C° 0 mm 2 mps 698 mmHg 37%
    17:00 +23°C° 0 mm 2 mps 698 mmHg 38%
    18:00 +23°C° 0 mm 2 mps 698 mmHg 39%
    19:00 +21°C° 0 mm 1 mps 698 mmHg 45%
    20:00 +19°C° 0 mm 1 mps 698 mmHg 52%
    21:00 +16°C° 0 mm 1 mps 697 mmHg 58%
    22:00 +15°C° 0 mm 1 mps 697 mmHg 62%
    23:00 +14°C° 0 mm 1 mps 697 mmHg 65%

    22 July, Sunday

    Time Temperature Precipitation Wind Pressure Humidity
    00:00 +12°C° 0 mm 1 mps 697 mmHg 69%
    01:00 +12°C° 0 mm 1 mps 697 mmHg 70%
    02:00 +10°C° 0 mm 0 mps 697 mmHg 72%
    03:00 +10°C° 0 mm 0 mps 697 mmHg 74%
    04:00 +12°C° 0 mm 0 mps 697 mmHg 68%
    05:00 +13°C° 0 mm 0 mps 698 mmHg 63%
    06:00 +15°C° 0 mm 0 mps 698 mmHg 58%
    07:00 +19°C° 0 mm 1 mps 698 mmHg 52%
    08:00 +21°C° 0 mm 1 mps 698 mmHg 46%
    09:00 +23°C° 0 mm 1 mps 698 mmHg 40%
    10:00 +25°C° 0 mm 1 mps 699 mmHg 37%
    11:00 +26°C° 0 mm 1 mps 699 mmHg 33%
    12:00 +28°C° 0 mm 1 mps 699 mmHg 30%
    13:00 +28°C° 0 mm 1 mps 698 mmHg 29%
    14:00 +28°C° 0 mm 1 mps 698 mmHg 28%
    15:00 +29°C° 0 mm 1 mps 698 mmHg 26%
    16:00 +28°C° 0 mm 1 mps 698 mmHg 28%
    17:00 +27°C° 0 mm 1 mps 697 mmHg 30%
    18:00 +26°C° 0 mm 1 mps 697 mmHg 31%
    19:00 +24°C° 0 mm 1 mps 697 mmHg 36%
    20:00 +22°C° 0 mm 1 mps 696 mmHg 41%
    21:00 +20°C° 0 mm 1 mps 696 mmHg 46%
    22:00 +20°C° 0 mm 1 mps 696 mmHg 47%
    23:00 +19°C° 0 mm 1 mps 696 mmHg 48%

    23 July, Monday

    Time Temperature Precipitation Wind Pressure Humidity
    00:00 +18°C° 0 mm 1 mps 696 mmHg 49%
    01:00 +18°C° 0 mm 1 mps 696 mmHg 50%
    02:00 +16°C° 0 mm 1 mps 696 mmHg 50%
    03:00 +16°C° 0 mm 1 mps 696 mmHg 51%
    04:00 +16°C° 0 mm 0 mps 696 mmHg 50%
    05:00 +17°C° 0 mm 0 mps 696 mmHg 49%
    06:00 +18°C° 0 mm 0 mps 696 mmHg 48%
    07:00 +19°C° 0 mm 0 mps 697 mmHg 44%
    08:00 +23°C° 0 mm 1 mps 697 mmHg 40%
    09:00 +25°C° 0 mm 1 mps 697 mmHg 36%
    10:00 +26°C° 0 mm 1 mps 697 mmHg 34%
    11:00 +27°C° 0 mm 2 mps 697 mmHg 32%
    12:00 +28°C° 0 mm 2 mps 697 mmHg 30%
    13:00 +28°C° 0 mm 2 mps 696 mmHg 30%
    14:00 +28°C° 0 mm 1 mps 696 mmHg 31%
    15:00 +28°C° 0 mm 1 mps 696 mmHg 31%
    16:00 +27°C° 0 mm 1 mps 695 mmHg 32%
    17:00 +27°C° 0 mm 1 mps 695 mmHg 33%
    18:00 +26°C° 0 mm 2 mps 695 mmHg 34%
    19:00 +24°C° 0.1 mm 1 mps 694 mmHg 42%
    20:00 +22°C° 0.1 mm 1 mps 694 mmHg 49%
    21:00 +20°C° 0.1 mm 1 mps 693 mmHg 56%
    22:00 +19°C° 0.1 mm 1 mps 693 mmHg 59%
    23:00 +18°C° 0.1 mm 1 mps 693 mmHg 61%
    Show more